RESURS P2 (40360 NORAD) Tracking and Keplerian Element Data

This shows tracking and keplerian element data for the satellite.

Feedback or suggestion? Click here.




ElementValue
Catalog40360
NameRESURS P2
Epoch Orbit37663
Epoch Day262.15643995
Epoch Year2021
RAAN347.715
Inclination97.2254
Eccentricity0.0009177
Argument of Perigee353.8091
Mean Anonmoly70.9054
Mean Motion15.34499743
Decay Rate1.16E-05
L11 40360U 14087A 21262.15643995 .00001160 00000-0 36991-4 0 9998
L22 40360 97.2254 347.7150 0009177 353.8091 70.9054 15.34499743376633

Live tracking and technical data element details for RESURS P2 (NORAD 40360). RESURS P2 can be tracked NOW for your location showing map with azimuth and elevation plus other details from your city location.

Track the satellite on the map from your city or location and see movement details for azimuth, elevation, latitude, longitude, range, height, and movement on the map or in text.







IsCatalogInMostPopularTable: catalog: 40360, numindb: 544
Update: records affected: 1



GetName: 40360 RESURS P2

Hit Count: updated at: Fri, 24 Sep 2021 18:43:49 GMT